Weather History for KAMW - August, 2013

Change the Weather History Date:

Sunday, August 25, 2013

  Actual Average Record
Temperature  
Mean Temperature 80 °F 70 °F  
Max Temperature 94 °F 81 °F 97 °F (2003)
Min Temperature 65 °F 59 °F 50 °F (2008)
Degree Days  
Heating Degree Days 0 1  
Month to date heating degree days 5 1  
Since 1 June heating degree days 56 29  
Since 1 July heating degree days 14 5  
Cooling Degree Days 15 5  
Month to date cooling degree days 150 171  
Year to date cooling degree days 652 657  
Since 1 June cooling degree days 597 608  
Growing Degree Days 30 (Base 50)    
Moisture  
Dew Point 67 °F    
Average Humidity 70    
Maximum Humidity 93    
Minimum Humidity 46    
Precipitation  
Precipitation 0.00 in 0.17 in 0.75 in (1987)
Month to date precipitation 0.79 3.62  
Sea Level Pressure  
Sea Level Pressure 30.08 in    
Wind  
Wind Speed 8 mph (South)    
Max Wind Speed 20 mph    
Max Gust Speed 24 mph    
Visibility 8 miles    
Events      
T = Trace of Precipitation, MM = Missing Value Source: NWS Daily Summary

Daily Weather History Graph

Daily Weather History Graph

Search for Another Location

Airport or City:

Trip Planner

Search our weather history database for the weather conditions in past years. The results will help you decide how hot, cold, wet, or windy it might be!

Date:

Astronomy

Aug. 25, 2013 Rise Set
Actual Time 6:33 AM CDT 7:59 PM CDT
Civil Twilight 6:03 AM CDT 8:28 PM CDT
Nautical Twilight 5:28 AM CDT 9:03 PM CDT
Astronomical Twilight 4:51 AM CDT 9:40 PM CDT
Moon 10:24 PM CDT (8/25) 11:41 AM CDT (8/25)
Length of Visible Light 14h 24m
Length of Day
13h 26m
Waning Gibbous, 75% of the Moon is Illuminated
Aug 25
Waning Gibbous
Aug 28
Last Quarter
Sep 5
New
Sep 12
First Quarter
Sep 19
Full

Hourly Weather History & Observations

Time (CDT) Temp. Heat Index Dew Point Humidity Pressure Visibility Wind Dir Wind Speed Gust Speed Precip Events Conditions
12:53 AM 72.0 °F - 66.9 °F 84% 30.08 in 8.0 mi SSE 4.6 mph - N/A   Clear
1:53 AM 71.1 °F - 66.9 °F 87% 30.08 in 7.0 mi SE 5.8 mph - N/A   Clear
2:53 AM 71.1 °F - 66.0 °F 84% 30.09 in 7.0 mi SE 5.8 mph - N/A   Clear
3:53 AM 69.1 °F - 64.9 °F 87% 30.10 in 6.0 mi SSE 3.5 mph - N/A   Clear
4:53 AM 68.0 °F - 64.9 °F 90% 30.11 in 6.0 mi SSE 3.5 mph - N/A   Clear
5:53 AM 66.9 °F - 64.0 °F 90% 30.12 in 6.0 mi Calm Calm - N/A   Clear
6:53 AM 66.9 °F - 64.0 °F 90% 30.13 in 4.0 mi SE 3.5 mph - N/A   Clear
7:53 AM 70.0 °F - 66.0 °F 87% 30.14 in 6.0 mi Calm Calm - N/A   Clear
8:53 AM 78.1 °F - 68.0 °F 71% 30.14 in 8.0 mi SSW 8.1 mph - N/A   Clear
9:53 AM 82.0 °F 84.9 °F 68.0 °F 62% 30.12 in 8.0 mi SSW 12.7 mph 21.9 mph N/A   Clear
10:53 AM 84.9 °F 88.8 °F 69.1 °F 59% 30.12 in 9.0 mi SSW 12.7 mph 20.7 mph N/A   Clear
11:53 AM 88.0 °F 92.9 °F 70.0 °F 55% 30.11 in 9.0 mi South 15.0 mph 23.0 mph N/A   Clear
12:53 PM 89.1 °F 92.9 °F 68.0 °F 50% 30.08 in 10.0 mi SSW 18.4 mph 24.2 mph N/A   Clear
1:53 PM 91.9 °F 97.4 °F 70.0 °F 48% 30.07 in 9.0 mi SSW 10.4 mph 20.7 mph N/A   Clear
2:53 PM 93.0 °F 99.0 °F 70.0 °F 47% 30.06 in 10.0 mi SSW 11.5 mph - N/A   Clear
3:53 PM 93.0 °F 99.0 °F 70.0 °F 47% 30.05 in 10.0 mi South 10.4 mph - N/A   Clear
4:53 PM 93.0 °F 97.9 °F 69.1 °F 45% 30.04 in 10.0 mi South 12.7 mph - N/A   Clear
5:53 PM 91.9 °F 96.9 °F 69.1 °F 47% 30.04 in 10.0 mi South 10.4 mph - N/A   Clear
6:53 PM 89.1 °F 92.1 °F 66.9 °F 48% 30.03 in 10.0 mi South 10.4 mph - N/A   Clear
7:53 PM 82.0 °F 84.5 °F 66.9 °F 60% 30.04 in 10.0 mi South 5.8 mph - N/A   Clear
8:53 PM 80.1 °F 82.3 °F 66.9 °F 64% 30.05 in 10.0 mi South 6.9 mph - N/A   Clear
9:53 PM 81.0 °F 83.3 °F 66.9 °F 62% 30.06 in 10.0 mi South 9.2 mph - N/A   Clear
10:53 PM 80.1 °F 82.7 °F 68.0 °F 67% 30.07 in 10.0 mi South 9.2 mph - N/A   Clear
11:53 PM 77.0 °F - 68.0 °F 74% 30.07 in 9.0 mi South 6.9 mph - N/A   Clear